DELTA 1 DEB, 21674

Orbit data source: Space-Track

DELTA 1 DEB, 21674 is space debris in SSO originally from a launch on Thu, 12 Jun 1975 UTC launched from the Air Force Western Test Range (AFWTR). Debris objects in space refer to the collection of defunct objects orbiting the Earth. Examples of debris include non-operational satellites, rocket bodies, and fragments generated from explosions, collisions, or faulty payload assembly.

Loading next visibility...
Identifier
21674, 1975-052JA
Orbit
SSO
Country
Flag of USUS
Related business
Manufacturer
Unknown
Mission
Spacecraft
Bus & Motor
Unknown
Mass
Unknown
Launch date (UTC)
1975-06-12 (51 years ago)
Launch vehicle
Unknown
Launch site
Air Force Western Test Range (AFWTR)
Object type
Payload
Rocket body
Debris
Shape & HBR
Unknown shape, 0.1 m
Radar Cross Section
Medium (>0.1 m² and <1 m²)

Expand to show TLE details & history
Last TLE update: 2 days ago

TLE from 2 days ago
0 DELTA 1 DEB
1 21674U 75052JA  26171.42401847  .00004699  00000-0  10302-2 0  9992
2 21674 100.0623  64.2173 0099834 127.2450 233.7900 14.55199309811360
Epoch: 2026-06-20T10:10Z
TLE epoch observation values (Epoch: 2026-06-20T10:10:35.195Z)
Latitude
-0.00001°
Longitude
2.93181°
Altitude
753.894 km
Speed
7.455 km/s
True Right ascension
04h 16m 52s
True Declination
0° 00' 00"
Sunlit
Object was in daylight at epoch
Visualization orbit readout
Latitude
Unknown
Longitude
Unknown
Altitude
Unknown
Speed
Unknown
Apparent Right ascension
Unknown
Apparent Declination
Unknown
Sunlit
N/A
Visualization observer readout
Local Sidereal Time
11:12:41
Azimuth
Unknown
Elevation
Unknown
Doppler factor
Unknown
Orbital elements
Apogee altitude
776.622 km
Perigee altitude
635.177 km
Semi-major axis
7,084.037 km
Eccentricity
0.00998
Inclination
100.0623°
RAAN
64.2173°
Arg. of periapsis
127.245°
True anomaly
232.87374°
Mean anomaly
233.79°
Eccentric anomaly
233.33119°
Mean motion
3.64017 °/min
Orbital period
98.9 mins
BSTAR
0.0010302
Loading maneuver chart data...
Computing Atmospheric mass density...
Loading historical data...
Loading historical data...
Loading historical data...
Loading historical data...
Loading historical data...
Loading historical data...
Loading historical data...

Documentation

Showing up to 5 results
|